Terminal Aerodrome Forecast
Issued by NWS Boston, MA

Home | Current Version | Previous Version | Text Only | Print | Product List | Glossary On
Versions: 1 2 3 4 5 6 7 8 9 10 11 12 13 14 15 16 17 18 19 20 21 22 23 24 25 26 27 28 29 30 31 32 33 34 35 36 37 38 39 40 41 42 43 44 45 46
000
FTUS41 KBOX 060829 AAA
TAFBOS
TAF AMD
KBOS 060829Z 0608/0712 35008KT P6SM BKN015 OVC020
     FM061200 03008KT P6SM BKN025
     FM061700 07009KT P6SM BKN025
     FM061900 07009KT P6SM VCSH BKN030
     FM070000 08007KT 5SM BR VCSH BKN010=

USA.gov is the U.S. government's official web portal to all federal, state and local government web resources and services.